Dewpoint
12 12 13 14 15 16 16 16 14 10 9 12 14 15 16 16 18 16 15 23 26 28 28 28 29 30 32 32 33 33 34 33 34 35 36 37 38 39
12 12 11 12 11 13 14 15 16 14 10 14 13 15 14 13 16 14 16 21 22 24 26 26 28 29 30 31 31 32 31 32 33 34 35 36 36 37
9 9 10 10 11 11 12 13 12 13 9 8 11 13 13 13 13 14 15 15 16 22 25 26 28 29 29 29 30 31 30 31 32 33 34 34 35 35
8 8 9 6 9 10 10 10 11 12 10 8 9 10 11 12 13 14 14 12 12 19 26 26 28 28 28 29 29 29 28 29 30 31 32 32 33 33
9 8 8 9 8 9 9 9 10 7 9 9 8 10 11 14 13 13 13 15 16 21 23 25 25 26 27 29 29 28 26 28 29 29 29 30 31 32
9 9 9 9 8 8 7 7 6 8 8 8 8 9 10 12 14 14 14 16 15 16 20 22 25 24 25 26 26 25 25 26 27 27 28 29 29 30
8 7 8 10 14 13 10 11 11 11 10 9 10 11 12 12 13 14 13 14 16 19 19 19 18 17 17 21 21 23 24 25 26 28 29 29 29 29
8 8 8 13 14 19 20 21 19 18 15 15 14 14 14 14 16 16 16 18 18 20 17 15 15 14 17 19 23 25 26 27 27 28 27 28 28 28
9 8 7 7 14 12 17 19 19 20 21 21 20 20 21 22 21 15 16 17 14 14 13 10 13 14 16 15 23 24 26 27 27 26 26 26 27 27
12 12 13 13 13 12 10 9 9 8 9 8 9 8 9 10 11 10 10 9 10 10 12 10 13 13 15 17 24 25 26 26 25 25 25 26 27 26
9 10 11 12 17 19 12 12 11 11 14 18 18 19 20 22 24 24 22 20 18 20 21 21 20 20 19 18 18 23 23 23 24 25 26 26 24 24
7 7 16 13 17 18 11 12 13 11 12 12 12 14 15 14 18 14 14 13 12 12 13 15 14 14 13 14 15 16 19 24 25 24 23 23 22 16
8 8 7 16 17 18 19 17 19 17 17 14 13 14 16 17 17 17 16 15 14 14 16 17 18 19 19 19 23 20 18 15 13 14 19 20 21 20
9 7 7 14 16 16 16 18 19 19 17 20 19 18 18 18 18 18 19 20 20 20 22 20 20 20 18 14 10 8 9 10 12 13 14 19 22 22
13 15 17 17 18 17 19 20 23 22 21 19 18 16 15 15 16 17 19 20 22 21 18 17 15 13 12 11 10 11 12 13 15 15 15 15 15 16
14 16 18 20 21 19 20 18 11 7 14 13 12 12 14 17 20 21 19 17 15 14 13 13 12 12 12 12 12 13 16 15 15 15 15 15 15 16
8 7 6 3 1 0 -0 -2 -1 0 3 4 6 7 8 11 12 13 13 11 9 8 8 10 9 10 12 14 14 15 13 14 15 15 15 15 15 16
12 10 7 6 4 2 1 1 4 7 8 9 10 12 13 10 9 10 9 9 7 7 7 8 9 11 12 13 16 13 14 15 15 15 15 15 15 16
15 14 10 9 8 8 7 7 8 9 10 16 13 10 8 8 7 7 7 6 6 5 6 8 9 8 6 5 8 14 11 12 12 12 13 13 13 13
7 7 8 11 13 13 13 13 14 15 14 11 9 8 7 7 6 5 5 4 4 4 4 6 7 7 7 7 7 9 13 10 11 11 11 13 14 18
-6 -2 1 3 1 5 7 7 8 5 4 4 5 6 6 6 4 4 3 8 7 4 3 4 6 13 10 12 10 10 12 16 15 13 13 13 14 14
-6 -6 -2 2 2 3 1 -0 -2 -2 0 0 2 3 4 4 2 2 2 1 1 1 1 3 6 7 8 8 6 6 7 9 13 16 17 17 13 11
-7 -8 -7 -5 -4 -8 -8 -6 -7 -6 -5 -2 1 2 3 1 2 2 1 1 1 1 2 3 4 6 6 6 8 7 8 8 9 9 11 16 17 18
Lifted_Index
22 22 22 23 23 24 24 24 22 19 19 21 22 23 24 24 25 25 25 25 24 24 23 23 23 22 22 21 21 21 21 21 21 21 20 20 20 20
22 22 22 23 23 24 24 24 23 22 21 22 23 24 24 24 24 25 25 25 24 24 23 23 22 22 21 21 21 21 21 21 21 21 21 20 20 20
22 22 22 23 23 24 24 24 24 23 23 23 24 24 24 24 24 24 24 24 24 24 23 22 21 21 21 20 20 20 21 21 21 21 21 21 21 20
22 22 23 23 23 24 24 24 24 24 24 24 24 24 24 24 24 24 24 24 24 24 23 22 21 21 21 20 20 20 21 21 21 21 21 21 21 21
23 23 23 23 23 23 24 24 24 24 24 24 24 24 24 24 24 24 24 24 24 24 23 22 22 21 21 21 20 21 21 21 21 21 21 21 21 21
24 24 24 24 24 24 24 24 24 24 24 24 24 24 24 24 24 24 24 24 23 23 23 22 22 22 22 22 21 21 21 21 21 21 21 20 20 20
24 24 25 25 25 24 24 24 24 24 24 24 24 24 23 23 23 23 23 23 23 23 23 22 22 22 22 22 22 22 21 21 21 20 20 20 20 20
24 24 25 25 25 25 24 24 24 23 23 23 23 23 23 23 23 23 22 22 22 22 22 22 22 22 22 21 21 21 20 20 20 20 20 20 20 20
24 24 24 25 25 25 25 24 24 23 23 23 23 23 22 22 22 22 21 21 21 20 20 20 20 19 19 19 19 18 18 18 18 18 19 19 19 19
24 24 24 24 24 24 24 24 24 23 23 23 22 22 21 21 20 19 19 19 18 18 17 17 16 16 16 16 16 16 15 15 16 16 16 17 18 18
24 24 24 24 23 23 23 23 23 22 22 21 21 20 19 18 17 16 15 15 15 15 14 14 14 14 14 15 15 14 14 14 14 14 14 15 15 16
22 22 22 22 21 21 20 20 20 20 19 18 18 17 17 15 14 14 13 13 13 14 13 13 13 14 14 14 14 14 14 13 13 13 13 14 14 15
21 21 20 20 19 18 18 17 17 16 16 16 15 15 14 14 13 13 13 13 13 13 13 13 13 13 13 13 13 13 13 13 13 13 13 13 13 13
19 18 18 17 17 16 15 15 14 14 14 14 14 13 13 13 13 12 12 12 12 12 12 12 12 12 12 12 12 12 12 12 12 12 12 12 12 12
16 16 16 15 15 14 14 13 13 12 12 13 13 13 13 13 12 12 12 12 12 12 12 12 12 12 12 12 12 12 12 12 11 11 12 12 12 12
14 14 14 14 13 13 13 12 12 12 13 13 13 13 13 12 12 12 12 12 12 12 12 12 11 11 11 11 11 11 11 11 11 11 11 12 12 12
13 13 13 13 13 13 13 13 13 13 13 13 13 13 13 12 12 12 12 13 12 12 12 11 11 11 11 11 11 11 11 11 11 11 11 12 12 12
12 12 12 12 12 12 13 13 13 13 13 12 12 12 12 12 12 12 12 12 12 12 12 11 11 11 11 10 10 10 10 10 10 11 11 11 11 11
11 11 11 11 11 12 12 12 12 12 12 12 12 12 12 12 12 12 12 12 11 11 11 11 11 10 10 10 10 10 10 10 10 10 10 11 11 11
11 11 11 11 11 11 12 12 12 11 11 11 12 12 12 12 12 12 11 11 11 11 11 11 10 10 11 11 11 10 10 10 10 10 10 10 11 11
11 11 11 11 11 12 12 12 12 12 12 12 12 12 12 12 12 12 12 11 11 11 11 11 10 10 11 11 11 11 10 10 10 10 11 11 11 11
12 12 12 12 12 12 12 12 12 12 12 12 12 12 12 12 12 12 12 11 11 11 11 10 10 10 10 10 10 10 10 10 10 10 11 11 12 12
12 12 12 12 12 12 12 12 12 12 12 12 12 12 13 12 12 12 12 12 11 11 10 10 9 9 9 9 9 9 9 10 10 10 11 11 12 12